CZ-4 DEB, 28069

Orbit data source: Space-Track

CZ-4 DEB, 28069 is space debris in SSO originally from a launch on Thu, 14 Oct 1999 UTC launched from the Taiyaun Space Center, China (TSC). Debris objects in space refer to the collection of defunct objects orbiting the Earth. Examples of debris include non-operational satellites, rocket bodies, and fragments generated from explosions, collisions, or faulty payload assembly.

Loading next visibility...
Identifier
28069, 1999-057MZ
Orbit
SSO
Country
Flag of CNCN / PRC
Related business
Manufacturer
Unknown
Mission
Spacecraft
Bus & Motor
Unknown
Mass
Unknown
Launch date (UTC)
1999-10-14 (26 years ago)
Launch vehicle
Unknown
Launch site
Taiyaun Space Center, China (TSC)
Object type
Payload
Rocket body
Debris
Shape & HBR
Unknown shape, 0.1 m
Radar Cross Section
Small (<0.1 m²)

Expand to show TLE details & history
Last TLE update: 1 day ago

TLE from 1 day ago
0 CZ-4 DEB
1 28069U 99057MZ  25303.61085701  .00002400  00000-0  56476-3 0  9993
2 28069  98.5096 357.8020 0070677  82.8101 278.1123 14.53777254672314
Epoch: 2025-10-30T14:39Z
TLE epoch observation values (Epoch: 2025-10-30T14:39:38.045Z)
Latitude
-0.00005°
Longitude
98.72632°
Altitude
709.579 km
Speed
7.504 km/s
True Right ascension
23h 51m 12s
True Declination
0° 00' 00"
Sunlit
Object was in full shadow at epoch
Visualization orbit readout
Latitude
Unknown
Longitude
Unknown
Altitude
Unknown
Speed
Unknown
Apparent Right ascension
Unknown
Apparent Declination
Unknown
Sunlit
N/A
Visualization observer readout
Local Sidereal Time
20:38:53
Azimuth
Unknown
Elevation
Unknown
Doppler factor
Unknown
Orbital elements
Apogee altitude
760.542 km
Perigee altitude
660.342 km
Semi-major axis
7,088.579 km
Eccentricity
0.00707
Inclination
98.5096°
RAAN
357.802°
Arg. of periapsis
82.8101°
True anomaly
277.30953°
Mean anomaly
278.1123°
Eccentric anomaly
277.71101°
Mean motion
3.63667 °/min
Orbital period
98.99 mins
BSTAR
0.00056476
Loading maneuver chart data...
Computing Atmospheric mass density...
Loading historical data...
Loading historical data...
Loading historical data...
Loading historical data...
Loading historical data...
Loading historical data...
Loading historical data...

Documentation

Showing up to 5 results
|